Waarnemingen

Advertentie
Mijn weer
Elsenborn, België (6496): temperatuur & dauwpunt: 18.04.2019 20:00:00 - 24.04.2019 20:00:00 (CEST)Elsenborn, België (6496): windsnelheid & windstoten: 18.04.2019 20:00:00 - 24.04.2019 20:00:00 (CEST)Elsenborn, België (6496): windrichting: 18.04.2019 20:00:00 - 24.04.2019 20:00:00 (CEST)Elsenborn, België (6496): luchtdruk: 18.04.2019 20:00:00 - 24.04.2019 20:00:00 (CEST)Elsenborn, België (6496): zicht: 18.04.2019 20:00:00 - 24.04.2019 20:00:00 (CEST)
Datum & Tijd tt [°C] td [°C] ff [km/u] ff [kn] fx [km/u] fx [kn] dd ppp [hPa] vv [km]
24.04.2019 20:00:00 7,3 7,0 14 8 - - Z 1005,7 5
24.04.2019 19:00:00 8,1 7,4 22 12 47 25 ZZW 1005,0 5
24.04.2019 18:00:00 10,8 8,9 18 10 40 21 ZW 1002,7 9
24.04.2019 17:00:00 17,2 5,5 14 8 - - ZZW 1000,1 20
24.04.2019 16:00:00 18,8 6,6 18 10 43 23 ZZW 1000,0 20
24.04.2019 15:00:00 20,0 5,5 18 10 47 25 ZZW 999,5 20
24.04.2019 14:00:00 19,5 4,8 22 12 - - Z 999,7 20
24.04.2019 13:00:00 18,8 5,3 22 12 50 27 Z 999,9 20
24.04.2019 12:00:00 18,1 5,7 22 12 50 27 ZZW 1000,0 20
24.04.2019 11:00:00 16,0 6,6 22 12 - - Z 1000,5 20
24.04.2019 10:00:00 15,3 7,0 22 12 40 21 Z 1000,2 20
24.04.2019 09:00:00 14,8 7,5 11 6 25 14 Z 999,9 20
24.04.2019 08:00:00 13,2 7,0 11 6 - - Z 1000,2 20
24.04.2019 07:00:00 7,1 6,0 4 2 7 4 N 1001,2 19
24.04.2019 06:00:00 6,8 5,5 4 2 7 4 N 1000,8 19
24.04.2019 05:00:00 7,3 5,3 4 2 - - N 1000,6 20
24.04.2019 04:00:00 7,0 4,6 4 2 7 4 N 1000,2 19
24.04.2019 03:00:00 8,6 5,1 4 2 14 8 N 999,8 20
24.04.2019 02:00:00 13,1 5,9 7 4 - - Z 998,7 20
24.04.2019 01:00:00 12,5 5,8 5 3 14 8 Z 998,6 10
24.04.2019 00:00:00 13,4 5,9 7 4 14 8 ZZO 998,3 20
23.04.2019 23:00:00 14,3 5,8 7 4 - - Z 997,9 20
23.04.2019 22:00:00 14,6 5,9 7 4 18 10 Z 997,7 1,8
23.04.2019 21:00:00 14,8 5,7 11 6 22 12 Z 997,4 20
23.04.2019 20:00:00 16,0 6,3 7 4 - - ZZO 996,7 20
23.04.2019 19:00:00 17,0 6,0 14 8 25 14 ZZO 996,3 20
23.04.2019 18:00:00 17,5 5,7 14 8 32 18 ZZO 996,2 20
23.04.2019 17:00:00 17,7 5,1 18 10 - - ZO 996,2 20
23.04.2019 16:00:00 16,7 5,3 14 8 32 18 ZO 996,6 20
23.04.2019 15:00:00 16,8 5,2 18 10 32 18 ZO 996,8 20
23.04.2019 14:00:00 16,2 4,6 11 6 - - O 996,9 20
23.04.2019 13:00:00 15,3 3,8 18 10 32 18 ZO 997,5 20
23.04.2019 12:00:00 15,5 3,6 18 10 32 18 OZO 997,4 20
23.04.2019 11:00:00 13,5 3,2 14 8 - - O 998,2 20
23.04.2019 10:00:00 11,5 2,4 14 8 32 18 OZO 998,9 19
23.04.2019 09:00:00 10,6 1,7 18 10 29 16 OZO 999,5 20
23.04.2019 08:00:00 9,3 1,2 11 6 - - OZO 1000,1 20
23.04.2019 07:00:00 8,9 0,8 14 8 25 14 OZO 1000,7 20
23.04.2019 06:00:00 8,8 0,2 11 6 18 10 OZO 1001,3 20
23.04.2019 05:00:00 8,6 -0,1 4 2 - - N 1002,0 20
23.04.2019 04:00:00 9,3 -0,1 7 4 18 10 O 1002,5 20
23.04.2019 03:00:00 9,8 0,0 7 4 25 14 O 1002,7 20
23.04.2019 02:00:00 10,1 0,3 11 6 - - OZO 1003,1 20
23.04.2019 01:00:00 9,8 0,7 11 6 22 12 OZO 1003,7 20
23.04.2019 00:00:00 11,3 1,1 11 6 22 12 O 1004,1 20
22.04.2019 23:00:00 12,0 1,4 11 6 - - OZO 1004,5 20
22.04.2019 22:00:00 12,2 0,0 7 4 18 10 OZO 1004,8 20
22.04.2019 21:00:00 14,1 -0,2 7 4 22 12 O 1004,6 20
22.04.2019 20:00:00 18,5 -0,6 11 6 - - O 1003,7 20
22.04.2019 19:00:00 20,0 -0,4 14 8 32 18 OZO 1003,5 20
22.04.2019 18:00:00 21,0 -2,7 22 12 40 21 OZO 1003,7 20
22.04.2019 17:00:00 21,7 -2,7 18 10 - - OZO 1004,1 20
22.04.2019 16:00:00 21,1 -1,1 18 10 40 21 OZO 1004,8 20
22.04.2019 15:00:00 20,6 0,3 18 10 40 21 ZO 1005,8 20
22.04.2019 14:00:00 20,3 -1,2 22 12 - - OZO 1006,5 20
22.04.2019 13:00:00 19,8 -1,8 18 10 50 27 OZO 1007,2 20
22.04.2019 12:00:00 18,9 -1,7 25 14 50 27 ZO 1008,3 20
22.04.2019 11:00:00 18,6 -2,3 18 10 - - ZO 1009,1 20
22.04.2019 10:00:00 17,8 -2,6 14 8 25 14 ZO 1009,7 20
22.04.2019 09:00:00 15,7 -2,1 7 4 18 10 ZO 1010,7 18
22.04.2019 08:00:00 6,5 1,0 4 2 - - N 1013,2 20
22.04.2019 07:00:00 2,9 0,2 4 2 4 2 N 1014,2 20
22.04.2019 06:00:00 3,5 0,3 0 0 4 2 N 1014,3 20
22.04.2019 05:00:00 3,2 0,0 4 2 - - N 1015,2 20
22.04.2019 04:00:00 5,0 0,1 4 2 7 4 N 1015,3 20
22.04.2019 03:00:00 5,2 0,2 7 4 11 6 O 1015,8 20
22.04.2019 02:00:00 4,4 0,8 4 2 - - N 1016,7 20
22.04.2019 01:00:00 4,6 0,8 4 2 7 4 N 1017,2 20
22.04.2019 00:00:00 6,6 1,6 4 2 7 4 N 1017,1 20
21.04.2019 23:00:00 8,3 1,7 4 2 - - N 1017,1 20
21.04.2019 22:00:00 12,0 1,5 4 2 7 4 N 1016,6 20
21.04.2019 21:00:00 14,1 0,9 4 2 14 8 N 1016,2 20
21.04.2019 20:00:00 18,2 0,0 7 4 - - ONO 1015,1 20
21.04.2019 19:00:00 19,8 0,1 11 6 22 12 ONO 1015,0 20
21.04.2019 18:00:00 20,7 -0,3 7 4 22 12 OZO 1015,5 20
21.04.2019 17:00:00 21,3 0,6 7 4 - - OZO 1015,7 19
21.04.2019 16:00:00 21,0 0,7 7 4 22 12 ONO 1016,5 19
21.04.2019 15:00:00 20,4 -0,2 7 4 25 14 OZO 1017,3 20
21.04.2019 14:00:00 20,1 1,1 11 6 - - O 1018,2 20
21.04.2019 13:00:00 19,7 -0,2 14 8 29 16 O 1019,0 20
21.04.2019 12:00:00 19,2 -0,1 11 6 25 14 O 1019,7 20
21.04.2019 11:00:00 19,0 -1,2 14 8 - - O 1020,5 20
21.04.2019 10:00:00 18,1 0,3 11 6 18 10 O 1020,8 19
21.04.2019 09:00:00 13,1 5,5 4 2 4 2 N 1022,2 19
21.04.2019 08:00:00 8,4 3,6 4 2 - - N 1023,7 19
21.04.2019 07:00:00 2,0 0,6 0 0 0 0 N 1025,5 20
21.04.2019 06:00:00 1,7 0,5 4 2 4 2 N 1025,9 15
21.04.2019 05:00:00 2,7 1,1 4 2 - - N 1026,2 20
21.04.2019 04:00:00 3,2 1,1 4 2 4 2 N 1026,7 20
21.04.2019 03:00:00 4,0 1,3 4 2 7 4 N 1026,9 20
21.04.2019 02:00:00 4,6 0,7 4 2 - - N 1027,2 20
21.04.2019 01:00:00 7,4 1,9 4 2 7 4 N 1027,0 20
21.04.2019 00:00:00 8,6 2,3 4 2 7 4 N 1027,0 20
20.04.2019 23:00:00 11,0 2,3 4 2 - - N 1026,7 20
20.04.2019 22:00:00 12,4 2,7 7 4 11 6 NO 1026,4 20
20.04.2019 21:00:00 14,4 2,2 7 4 14 8 NNO 1025,7 20
20.04.2019 20:00:00 17,6 2,4 11 6 - - NO 1025,0 20
20.04.2019 19:00:00 19,7 0,7 11 6 29 16 ONO 1024,7 20
20.04.2019 18:00:00 20,4 1,4 11 6 32 18 ONO 1025,0 20
20.04.2019 17:00:00 20,6 1,9 18 10 - - NNO 1025,2 20
20.04.2019 16:00:00 20,5 1,5 14 8 32 18 NO 1025,7 20
20.04.2019 15:00:00 20,8 0,7 14 8 32 18 O 1026,2 20
20.04.2019 14:00:00 19,8 1,2 14 8 - - ONO 1026,7 16
20.04.2019 13:00:00 20,3 0,4 11 6 29 16 NO 1027,0 20
20.04.2019 12:00:00 20,3 1,2 14 8 29 16 O 1027,4 20
20.04.2019 11:00:00 19,3 -0,7 14 8 - - OZO 1027,7 20
20.04.2019 10:00:00 18,8 0,7 7 4 14 8 O 1027,7 20
20.04.2019 09:00:00 13,0 5,9 4 2 4 2 N 1029,2 20
20.04.2019 08:00:00 5,1 1,4 4 2 - - N 1031,0 20
20.04.2019 07:00:00 0,8 -1,2 4 2 4 2 N 1031,9 20
20.04.2019 06:00:00 1,0 -1,3 4 2 4 2 N 1031,7 20
20.04.2019 05:00:00 1,7 -1,1 4 2 - - N 1031,7 20
20.04.2019 04:00:00 1,8 -0,7 4 2 7 4 N 1031,5 20
20.04.2019 03:00:00 2,8 -0,4 4 2 11 6 N 1031,4 20
20.04.2019 02:00:00 3,9 0,4 4 2 - - N 1031,2 20
20.04.2019 01:00:00 4,3 0,5 4 2 4 2 - 1031,2 10
20.04.2019 00:00:00 6,3 0,9 4 2 4 2 N 1030,9 20
19.04.2019 23:00:00 9,3 0,9 4 2 - - N 1030,0 20
19.04.2019 22:00:00 11,6 0,9 4 2 7 4 N 1029,0 20
19.04.2019 21:00:00 13,8 1,0 4 2 14 8 N 1028,2 20
19.04.2019 20:00:00 18,2 0,0 11 6 - - O 1026,7 20
19.04.2019 19:00:00 19,9 -0,9 11 6 22 12 ZO 1025,9 20
19.04.2019 18:00:00 20,4 0,8 14 8 25 14 OZO 1025,7 20
19.04.2019 17:00:00 20,6 1,6 14 8 - - ZO 1025,5 20
19.04.2019 16:00:00 20,8 1,2 14 8 29 16 OZO 1025,5 20
19.04.2019 15:00:00 20,5 -0,3 11 6 29 16 ZO 1025,9 19
19.04.2019 14:00:00 20,4 0,0 14 8 - - ZO 1025,9 20
19.04.2019 13:00:00 19,4 1,7 18 10 32 18 ZO 1026,2 20
19.04.2019 12:00:00 18,4 1,0 14 8 29 16 OZO 1026,4 20
19.04.2019 11:00:00 16,7 1,3 11 6 - - O 1026,7 20
19.04.2019 10:00:00 15,6 1,8 11 6 25 14 O 1026,7 20
19.04.2019 09:00:00 14,1 2,6 7 4 14 8 O 1026,7 20
19.04.2019 08:00:00 8,7 4,1 4 2 - - N 1027,9 20
19.04.2019 07:00:00 3,2 0,7 4 2 11 6 N 1029,0 20
19.04.2019 06:00:00 4,1 0,7 4 2 7 4 N 1028,4 20
19.04.2019 05:00:00 5,6 1,0 4 2 - - N 1027,9 20
19.04.2019 04:00:00 6,6 1,0 4 2 14 8 N 1027,4 20
19.04.2019 03:00:00 5,3 0,9 7 4 14 8 OZO 1027,4 20
19.04.2019 02:00:00 6,0 1,1 7 4 - - OZO 1027,0 20
19.04.2019 01:00:00 5,4 1,5 7 4 14 8 OZO 1027,4 20
19.04.2019 00:00:00 7,0 1,9 11 6 11 6 ZO 1026,9 20
18.04.2019 23:00:00 7,0 1,8 4 2 - - N 1026,5 20
18.04.2019 22:00:00 8,5 1,8 4 2 4 2 N 1026,0 20
18.04.2019 21:00:00 11,3 1,8 4 2 18 10 N 1024,7 20
18.04.2019 20:00:00 15,6 0,4 11 6 - - OZO 1023,2 20

tt = temperatuur
td = dauwpunt
ff = windsnelheid
fx = windstoten
dd = windrichting
ppp = luchtdruk
vv = zicht

Weerstations in de omgeving